STARLINK-33580 (63711 NORAD) Tracking and Keplerian Element Data

This shows tracking and keplerian element data for the satellite.

Feedback or suggestion? Click here.




ElementValue
Catalog63711
NameSTARLINK-33580
Epoch Orbit3694
Epoch Day353.67011025
Epoch Year2025
RAAN231.5682
Inclination53.1583
Eccentricity0.0001529
Argument of Perigee99.7323
Mean Anonmoly260.385
Mean Motion15.30200528
Decay Rate0.00019901
L11 63711U 25087Q 25353.67011025 .00019901 00000+0 68224-3 0 9994
L22 63711 53.1583 231.5682 0001529 99.7323 260.3850 15.30200528 36944



Live tracking and technical data element details for STARLINK-33580 (NORAD 63711). STARLINK-33580 can be tracked NOW for your location showing map with azimuth and elevation plus other details from your city location.







IsCatalogInMostPopularTable: catalog: 63711, numindb: 6
Update: records affected: 1



GetName: 63711 STARLINK-33580

Hit Count: updated at: Mon, 20 Apr 2026 10:11:48 GMT